sat.trackr.live / text

‹ back to catalog

O3B FM5

NORAD 39188 · 2013-031A

PAYLOAD ACTIVE UNKNOWN

§ Identity

Operator
Country
O3B
Launch date
2013-06-25
Launch site
FRGUI
Launch vehicle
Mass (kg)
RCS (m²)
49.77

Purposes: comms

External: N2YO · Heavens-Above · Gunter

§ Orbital elements

Epoch: 2026-05-24T20:27:54.980352Z

Period
287.93 min
Inclination
0.1006°
Eccentricity
0.0003040
Mean motion
5.00116522 rev/d
Perigee alt
8,061.5 km
Apogee alt
8,070.3 km
Semi-major
14,444.0 km
B*
0.0000e+0
RAAN
351.6472°
Arg perigee
59.1588°
Mean anomaly
309.2204°
Rev number
23,587

§ Raw data

O3B FM51 39188U 13031A   26144.85271968 -.00000024  00000+0  00000+0 0  99952 39188   0.1006 351.6472 0003040  59.1588 309.2204  5.00116522235876

JSON: /api/v1/satellites/39188 · /tle

For live sub-satellite position, see the globe view (requires WebGL).

§ Visibility from observer

Set your observer location to see the next 7 days of passes ≥ 10°. The values pass through the URL so the page stays shareable.

No JS? Fill the form by hand. The geolocation button needs JavaScript.